History for KNYNEWYO343

Midtown West, New York, NY — Current Conditions
Daily Summary for January 21, 2018
  Current: High: Low: Average:
Temperature: 50.5°F 50.7°F 41.2°F 46.0°F
Dew Point: 35.1°F 35.2°F 25.5°F 28.7°F
Humidity: 55% 58% 41% 51%
Wind Speed: 0.0mph 2.7mph - 0.0mph
Wind Gust: 0.0mph 4.9mph - -
Wind: East - - WNW
Pressure: 30.14in 30.17in 30.01in -
Precipitation: 0.00in      
Solar Radiation: 0 watts/m^2      
UV Index: 0.0      
Statistics for the rest of the month
    High: Low: Average:
Temperature:   62.4°F 6.4°F 27.9°F
Dew Point:   61.3°F -17.5°F 11.7°F
Humidity:   98.0% 23.0% 52.6%
Wind Speed:   7.4mph from the ENE - 0.2mph
Wind Gust:   12.3mph from the ENE - -
Wind:   - - SSW
Pressure:   30.68in 29.24in -
Precipitation:   1.07in    
KNYNEWYO343 Weather Graph
Tabular Data for January 21, 2018
Time Temp. Dew Point Pressure Wind Gust Humidity Rainfall Solar Radiation
00:03 45.1°F 26.6°F 30.02in 0.0mph 48% 0.00in 0.00 watts/m^2
00:08 45.1°F 27.1°F 30.01in 0.0mph 49% 0.00in 0.00 watts/m^2
00:13 45.1°F 27.1°F 30.02in 0.0mph 49% 0.00in 0.00 watts/m^2
00:18 45.0°F 27.0°F 30.03in 0.0mph 49% 0.00in 0.00 watts/m^2
00:23 45.0°F 27.0°F 30.02in 0.0mph 49% 0.00in 0.00 watts/m^2
00:28 44.8°F 27.3°F 30.01in 0.0mph 50% 0.00in 0.00 watts/m^2
00:33 44.6°F 27.1°F 30.01in 0.0mph 50% 0.00in 0.00 watts/m^2
00:38 44.6°F 26.6°F 30.02in 0.0mph 49% 0.00in 0.00 watts/m^2
00:43 44.4°F 27.0°F 30.02in 0.0mph 50% 0.00in 0.00 watts/m^2
00:48 44.4°F 27.5°F 30.02in 0.0mph 51% 0.00in 0.00 watts/m^2
00:53 44.2°F 27.3°F 30.02in 0.0mph 51% 0.00in 0.00 watts/m^2
01:03 44.1°F 27.1°F 30.02in 0.0mph 51% 0.00in 0.00 watts/m^2
01:08 43.9°F 27.0°F 30.02in 0.0mph 51% 0.00in 0.00 watts/m^2
01:29 43.3°F 27.0°F 30.03in 0.0mph 52% 0.00in 0.00 watts/m^2
01:34 43.2°F 26.8°F 30.03in 0.0mph 52% 0.00in 0.00 watts/m^2
01:39 43.0°F 27.5°F 30.03in 0.0mph 54% 0.00in 0.00 watts/m^2
01:44 42.8°F 27.3°F 30.04in 0.0mph 54% 0.00in 0.00 watts/m^2
01:49 42.6°F 27.1°F 30.04in 0.0mph 54% 0.00in 0.00 watts/m^2
01:54 42.4°F 27.0°F 30.04in 0.0mph 54% 0.00in 0.00 watts/m^2
01:59 42.4°F 27.0°F 30.04in 0.0mph 54% 0.00in 0.00 watts/m^2
02:09 42.3°F 26.8°F 30.05in 0.0mph 54% 0.00in 0.00 watts/m^2
02:14 42.1°F 26.6°F 30.05in 0.0mph 54% 0.00in 0.00 watts/m^2
02:19 42.1°F 26.6°F 30.04in 0.0mph 54% 0.00in 0.00 watts/m^2
02:24 42.1°F 26.6°F 30.05in 0.0mph 54% 0.00in 0.00 watts/m^2
02:29 42.1°F 27.1°F 30.04in 0.0mph 55% 0.00in 0.00 watts/m^2
02:35 42.1°F 27.1°F 30.05in 0.0mph 55% 0.00in 0.00 watts/m^2
02:40 42.1°F 26.2°F 30.04in 0.0mph 53% 0.00in 0.00 watts/m^2
02:45 42.3°F 26.8°F 30.05in 0.0mph 54% 0.00in 0.00 watts/m^2
02:50 42.3°F 26.8°F 30.05in 0.0mph 54% 0.00in 0.00 watts/m^2
03:00 42.3°F 26.8°F 30.05in 0.0mph 54% 0.00in 0.00 watts/m^2
03:05 42.3°F 26.8°F 30.05in 0.0mph 54% 0.00in 0.00 watts/m^2
03:10 42.1°F 27.1°F 30.05in 0.0mph 55% 0.00in 0.00 watts/m^2
03:15 41.9°F 27.0°F 30.05in 0.0mph 55% 0.00in 0.00 watts/m^2
03:20 41.9°F 27.0°F 30.05in 0.0mph 55% 0.00in 0.00 watts/m^2
03:25 41.9°F 26.4°F 30.04in 0.0mph 54% 0.00in 0.00 watts/m^2
03:30 41.9°F 25.5°F 30.04in 0.0mph 52% 0.00in 0.00 watts/m^2
03:35 42.1°F 25.7°F 30.04in 0.0mph 52% 0.00in 0.00 watts/m^2
03:40 42.3°F 26.4°F 30.05in 0.0mph 53% 0.00in 0.00 watts/m^2
03:45 42.4°F 27.0°F 30.05in 0.0mph 54% 0.00in 0.00 watts/m^2
03:51 42.4°F 27.0°F 30.04in 0.0mph 54% 0.00in 0.00 watts/m^2
03:56 42.3°F 26.8°F 30.05in 0.0mph 54% 0.00in 0.00 watts/m^2
04:01 42.3°F 26.8°F 30.06in 0.0mph 54% 0.00in 0.00 watts/m^2
04:06 42.1°F 26.6°F 30.05in 0.0mph 54% 0.00in 0.00 watts/m^2
04:11 41.9°F 27.0°F 30.05in 0.0mph 55% 0.00in 0.00 watts/m^2
04:16 41.7°F 26.8°F 30.05in 0.0mph 55% 0.00in 0.00 watts/m^2
04:21 41.7°F 26.8°F 30.05in 0.0mph 55% 0.00in 0.00 watts/m^2
04:26 41.7°F 26.8°F 30.06in 0.0mph 55% 0.00in 0.00 watts/m^2
04:31 41.7°F 26.2°F 30.06in 0.0mph 54% 0.00in 0.00 watts/m^2
04:36 41.7°F 26.2°F 30.06in 0.0mph 54% 0.00in 0.00 watts/m^2
04:41 41.7°F 26.2°F 30.06in 0.0mph 54% 0.00in 0.00 watts/m^2
04:46 41.7°F 26.2°F 30.06in 0.0mph 54% 0.00in 0.00 watts/m^2
04:51 41.7°F 26.2°F 30.06in 0.0mph 54% 0.00in 0.00 watts/m^2
04:56 41.7°F 26.2°F 30.07in 0.0mph 54% 0.00in 0.00 watts/m^2
05:01 41.7°F 26.2°F 30.07in 0.0mph 54% 0.00in 0.00 watts/m^2
05:07 41.7°F 26.8°F 30.07in 0.0mph 55% 0.00in 0.00 watts/m^2
05:12 41.7°F 26.8°F 30.07in 0.0mph 55% 0.00in 0.00 watts/m^2
05:17 41.7°F 26.8°F 30.07in 0.0mph 55% 0.00in 0.00 watts/m^2
05:22 41.7°F 26.8°F 30.07in 0.0mph 55% 0.00in 0.00 watts/m^2
05:27 41.7°F 26.8°F 30.07in 0.0mph 55% 0.00in 0.00 watts/m^2
05:32 41.7°F 26.8°F 30.07in 0.0mph 55% 0.00in 0.00 watts/m^2
05:37 41.5°F 27.0°F - 0.0mph 56% 0.00in 0.00 watts/m^2
05:42 41.5°F 27.0°F - 0.0mph 56% 0.00in 0.00 watts/m^2
05:47 41.5°F 27.0°F - 0.0mph 56% 0.00in 0.00 watts/m^2
05:52 41.5°F 27.0°F 30.09in 0.0mph 56% 0.00in 0.00 watts/m^2
05:58 41.4°F 26.8°F 30.09in 0.0mph 56% 0.00in 0.00 watts/m^2
06:03 41.4°F 26.8°F 30.09in 0.0mph 56% 0.00in 0.00 watts/m^2
06:08 41.2°F 27.1°F 30.09in 0.0mph 57% 0.00in 0.00 watts/m^2
06:13 41.2°F 27.1°F 30.10in 0.0mph 57% 0.00in 0.00 watts/m^2
06:18 41.2°F 26.6°F 30.10in 0.0mph 56% 0.00in 0.00 watts/m^2
06:23 41.4°F 26.4°F 30.10in 0.0mph 55% 0.00in 0.00 watts/m^2
06:28 41.5°F 26.6°F 30.10in 0.0mph 55% 0.00in 0.00 watts/m^2
06:33 41.5°F 26.6°F 30.10in 0.0mph 55% 0.00in 0.00 watts/m^2
06:38 41.7°F 27.1°F 30.11in 0.0mph 56% 0.00in 0.00 watts/m^2
06:43 41.7°F 27.1°F 30.11in 0.0mph 56% 0.00in 0.00 watts/m^2
06:48 41.7°F 27.1°F 30.11in 0.0mph 56% 0.00in 0.00 watts/m^2
06:50 41.7°F 27.1°F 30.11in 0.0mph 56% 0.00in 0.00 watts/m^2
06:55 41.5°F 27.0°F 30.11in 0.0mph 56% 0.00in 0.00 watts/m^2
07:00 41.4°F 27.3°F 30.11in 0.0mph 57% 0.00in 0.00 watts/m^2
07:05 41.2°F 27.1°F 30.13in 0.0mph 57% 0.00in 0.00 watts/m^2
07:10 41.2°F 27.5°F 30.11in 0.0mph 58% 0.00in 0.00 watts/m^2
07:15 41.2°F 27.5°F 30.12in 0.0mph 58% 0.00in 0.00 watts/m^2
07:20 41.2°F 27.1°F 30.12in 0.0mph 57% 0.00in 0.00 watts/m^2
07:25 41.2°F 27.1°F 30.12in 0.0mph 57% 0.00in 1.72 watts/m^2
07:31 41.2°F 27.5°F 30.12in 0.0mph 58% 0.00in 3.64 watts/m^2
07:36 41.4°F 27.3°F 30.12in 0.0mph 57% 0.00in 5.59 watts/m^2
07:41 41.4°F 27.3°F 30.13in 0.0mph 57% 0.00in 7.44 watts/m^2
07:46 41.5°F 27.5°F 30.12in 0.0mph 57% 0.00in 9.34 watts/m^2
07:51 41.5°F 27.5°F 30.13in 0.0mph 57% 0.00in 10.95 watts/m^2
07:56 41.5°F 27.5°F 30.13in 0.0mph 57% 0.00in 12.91 watts/m^2
08:01 41.7°F 27.7°F 30.13in 0.0mph 57% 0.00in 16.31 watts/m^2
08:06 41.7°F 27.7°F 30.13in 0.0mph 57% 0.00in 18.01 watts/m^2
08:11 41.7°F 27.7°F 30.13in 0.0mph 57% 0.00in 19.54 watts/m^2
08:16 41.9°F 27.9°F 30.13in 0.0mph 57% 0.00in 20.76 watts/m^2
08:21 41.9°F 27.3°F 30.13in 0.0mph 56% 0.00in 22.50 watts/m^2
08:26 42.1°F 27.1°F 30.13in 0.0mph 55% 0.00in 24.40 watts/m^2
08:31 42.1°F 27.1°F 30.13in 0.0mph 55% 0.00in 26.89 watts/m^2
08:36 42.3°F 27.3°F 30.13in 0.0mph 55% 0.00in 29.22 watts/m^2
08:41 42.4°F 27.0°F 30.13in 0.0mph 54% 0.00in 31.81 watts/m^2
08:47 42.6°F 27.1°F 30.13in 0.0mph 54% 0.00in 34.24 watts/m^2
08:52 43.0°F 27.0°F 30.13in 0.0mph 53% 0.00in 36.57 watts/m^2
08:57 43.2°F 27.1°F 30.14in 0.0mph 53% 0.00in 38.37 watts/m^2
09:02 43.3°F 27.0°F 30.14in 2.5mph 52% 0.00in 39.21 watts/m^2
09:07 43.7°F 27.3°F 30.14in 0.0mph 52% 0.00in 40.27 watts/m^2
09:12 43.9°F 26.4°F 30.15in 0.0mph 50% 0.00in 40.27 watts/m^2
09:17 44.1°F 26.6°F 30.14in 0.0mph 50% 0.00in 41.96 watts/m^2
09:22 44.2°F 26.8°F 30.15in 0.0mph 50% 0.00in 43.23 watts/m^2
09:27 44.4°F 27.0°F 30.16in 0.0mph 50% 0.00in 44.29 watts/m^2
09:32 44.6°F 27.1°F 30.15in 0.0mph 50% 0.00in 44.92 watts/m^2
09:37 44.6°F 27.1°F 30.16in 2.5mph 50% 0.00in 45.87 watts/m^2
09:42 44.8°F 27.3°F 30.16in 0.0mph 50% 0.00in 45.40 watts/m^2
09:47 44.8°F 27.3°F 30.16in 0.0mph 50% 0.00in 48.15 watts/m^2
09:52 45.0°F 27.0°F 30.16in 0.0mph 49% 0.00in 49.42 watts/m^2
09:57 45.0°F 27.0°F 30.16in 0.0mph 49% 0.00in 49.95 watts/m^2
10:03 45.1°F 27.1°F 30.15in 0.0mph 49% 0.00in 51.80 watts/m^2
10:08 45.3°F 27.3°F 30.16in 0.0mph 49% 0.00in 52.54 watts/m^2
10:13 45.5°F 27.5°F 30.16in 0.0mph 49% 0.00in 53.60 watts/m^2
10:18 45.7°F 27.7°F 30.16in 0.0mph 49% 0.00in 54.81 watts/m^2
10:23 45.9°F 27.9°F 30.16in 0.0mph 49% 0.00in 55.55 watts/m^2
10:28 45.9°F 27.3°F 30.16in 0.0mph 48% 0.00in 56.40 watts/m^2
10:33 46.0°F 27.5°F 30.16in 0.0mph 48% 0.00in 58.30 watts/m^2
10:38 46.2°F 27.1°F 30.16in 0.0mph 47% 0.00in 60.84 watts/m^2
10:43 46.2°F 27.1°F 30.17in 2.5mph 47% 0.00in 62.43 watts/m^2
10:48 46.4°F 27.9°F 30.17in 0.0mph 48% 0.00in 66.39 watts/m^2
10:53 46.4°F 27.9°F 30.17in 0.0mph 48% 0.00in 68.88 watts/m^2
10:58 46.6°F 27.5°F 30.16in 2.5mph 47% 0.00in 69.30 watts/m^2
11:03 46.8°F 27.7°F 30.16in 0.0mph 47% 0.00in 67.45 watts/m^2
11:08 46.9°F 27.3°F 30.17in 2.5mph 46% 0.00in 64.75 watts/m^2
11:13 46.9°F 27.9°F 30.15in 0.0mph 47% 0.00in 60.68 watts/m^2
11:19 47.1°F 27.5°F 30.15in 0.0mph 46% 0.00in 60.89 watts/m^2
11:24 47.1°F 27.5°F 30.15in 0.0mph 46% 0.00in 57.77 watts/m^2
11:29 47.1°F 27.9°F 30.15in 0.0mph 47% 0.00in 54.71 watts/m^2
11:34 47.1°F 27.9°F 30.15in 0.0mph 47% 0.00in 52.54 watts/m^2
11:39 47.1°F 27.9°F 30.15in 0.0mph 47% 0.00in 49.26 watts/m^2
11:44 47.3°F 27.5°F 30.15in 0.0mph 46% 0.00in 45.13 watts/m^2
11:49 47.3°F 27.5°F 30.15in 0.0mph 46% 0.00in 43.76 watts/m^2
11:54 47.3°F 27.5°F 30.14in 0.0mph 46% 0.00in 43.92 watts/m^2
11:59 47.5°F 28.2°F 30.14in 0.0mph 47% 0.00in 41.54 watts/m^2
12:04 47.5°F 27.7°F 30.14in 0.0mph 46% 0.00in 41.86 watts/m^2
12:09 47.7°F 27.9°F 30.14in 0.0mph 46% 0.00in 41.75 watts/m^2
12:14 47.7°F 27.9°F 30.14in 0.0mph 46% 0.00in 41.86 watts/m^2
12:19 47.7°F 27.9°F 30.14in 0.0mph 46% 0.00in 40.80 watts/m^2
12:24 47.7°F 27.9°F 30.14in 0.0mph 46% 0.00in 41.12 watts/m^2
12:29 47.7°F 27.3°F 30.12in 0.0mph 45% 0.00in 43.18 watts/m^2
12:35 47.8°F 27.5°F 30.13in 0.0mph 45% 0.00in 43.92 watts/m^2
12:40 47.8°F 27.5°F 30.13in 0.0mph 45% 0.00in 45.45 watts/m^2
12:45 48.0°F 27.1°F 30.13in 0.0mph 44% 0.00in 45.08 watts/m^2
12:50 48.0°F 27.1°F 30.13in 0.0mph 44% 0.00in 46.46 watts/m^2
12:55 48.2°F 27.3°F 30.13in 0.0mph 44% 0.00in 46.19 watts/m^2
13:00 48.4°F 27.5°F 30.13in 0.0mph 44% 0.00in 42.75 watts/m^2
13:05 48.4°F 27.5°F 30.13in 0.0mph 44% 0.00in 40.53 watts/m^2
13:10 48.6°F 27.7°F 30.12in 0.0mph 44% 0.00in 41.01 watts/m^2
13:15 48.6°F 27.7°F 30.12in 0.0mph 44% 0.00in 40.75 watts/m^2
13:20 48.6°F 27.7°F 30.12in 0.0mph 44% 0.00in 40.80 watts/m^2
13:25 48.7°F 27.9°F 30.12in 0.0mph 44% 0.00in 39.85 watts/m^2
13:30 48.7°F 27.9°F 30.11in 0.0mph 44% 0.00in 36.20 watts/m^2
13:35 48.7°F 27.9°F 30.12in 0.0mph 44% 0.00in 34.35 watts/m^2
13:40 48.7°F 27.9°F 30.11in 0.0mph 44% 0.00in 36.73 watts/m^2
13:45 48.7°F 27.9°F 30.12in 0.0mph 44% 0.00in 35.19 watts/m^2
13:51 48.9°F 28.0°F 30.11in 0.0mph 44% 0.00in 34.45 watts/m^2
13:56 48.9°F 28.0°F 30.11in 0.0mph 44% 0.00in 33.39 watts/m^2
14:01 49.1°F 28.2°F 30.11in 0.0mph 44% 0.00in 36.99 watts/m^2
14:06 49.1°F 28.2°F 30.11in 0.0mph 44% 0.00in 39.32 watts/m^2
14:11 49.3°F 27.7°F 30.11in 0.0mph 43% 0.00in 39.90 watts/m^2
14:16 49.5°F 27.3°F 30.10in 0.0mph 42% 0.00in 38.84 watts/m^2
14:21 49.6°F 27.5°F 30.11in 0.0mph 42% 0.00in 36.04 watts/m^2
14:26 49.8°F 27.7°F 30.10in 0.0mph 42% 0.00in 35.19 watts/m^2
14:31 50.0°F 27.9°F 30.11in 0.0mph 42% 0.00in 33.98 watts/m^2
14:36 50.2°F 28.0°F 30.10in 0.0mph 42% 0.00in 42.60 watts/m^2
14:41 50.2°F 28.0°F 30.10in 2.5mph 42% 0.00in 40.27 watts/m^2
14:46 50.4°F 28.2°F 30.10in 0.0mph 42% 0.00in 41.59 watts/m^2
14:51 50.4°F 27.5°F 30.11in 0.0mph 41% 0.00in 35.93 watts/m^2
14:56 50.4°F 28.2°F 30.11in 0.0mph 42% 0.00in 40.75 watts/m^2
15:01 50.4°F 28.2°F 30.11in 0.0mph 42% 0.00in 33.13 watts/m^2
15:12 50.5°F 28.4°F 30.11in 0.0mph 42% 0.00in 32.02 watts/m^2
15:22 50.4°F 28.2°F 30.11in 0.0mph 42% 0.00in 27.79 watts/m^2
15:27 50.4°F 28.2°F 30.12in 0.0mph 42% 0.00in 34.40 watts/m^2
15:32 50.4°F 28.2°F 30.12in 0.0mph 42% 0.00in 34.40 watts/m^2
15:37 50.4°F 28.2°F 30.12in 0.0mph 42% 0.00in 38.10 watts/m^2
15:47 50.4°F 28.2°F 30.10in 0.0mph 42% 0.00in 24.40 watts/m^2
15:57 50.5°F 28.4°F 30.11in 0.0mph 42% 0.00in 18.43 watts/m^2
16:02 50.5°F 28.9°F 30.12in 0.0mph 43% 0.00in 18.91 watts/m^2
16:07 50.5°F 28.4°F 30.12in 0.0mph 42% 0.00in 17.11 watts/m^2
16:12 50.5°F 28.4°F 30.12in 0.0mph 42% 0.00in 16.26 watts/m^2
16:17 50.5°F 28.4°F 30.12in 0.0mph 42% 0.00in 13.39 watts/m^2
16:23 50.4°F 28.8°F 30.11in 0.0mph 43% 0.00in 12.14 watts/m^2
16:33 50.4°F 28.8°F 30.12in 0.0mph 43% 0.00in 8.98 watts/m^2
16:38 50.4°F 28.8°F 30.12in 0.0mph 43% 0.00in 6.07 watts/m^2
16:43 50.4°F 28.8°F 30.11in 0.0mph 43% 0.00in 3.57 watts/m^2
16:48 50.4°F 28.8°F 30.11in 0.0mph 43% 0.00in 1.19 watts/m^2
16:58 50.4°F 28.8°F 30.12in 0.0mph 43% 0.00in 0.00 watts/m^2
17:03 50.4°F 28.8°F 30.13in 0.0mph 43% 0.00in 0.00 watts/m^2
17:08 50.4°F 28.8°F 30.13in 0.0mph 43% 0.00in 0.00 watts/m^2
17:13 50.4°F 28.8°F 30.14in 0.0mph 43% 0.00in 0.00 watts/m^2
17:18 50.4°F 28.8°F 30.13in 0.0mph 43% 0.00in 0.00 watts/m^2
17:23 50.4°F 28.8°F 30.12in 0.0mph 43% 0.00in 0.00 watts/m^2
17:39 50.4°F 29.3°F 30.14in 0.0mph 44% 0.00in 0.00 watts/m^2
17:44 50.4°F 29.8°F 30.14in 0.0mph 45% 0.00in 0.00 watts/m^2
17:49 50.2°F 30.2°F 30.14in 0.0mph 46% 0.00in 0.00 watts/m^2
17:59 50.2°F 31.3°F 30.13in 0.0mph 48% 0.00in 0.00 watts/m^2
18:04 50.2°F 31.3°F 30.13in 0.0mph 48% 0.00in 0.00 watts/m^2
18:14 50.4°F 32.5°F 30.13in 0.0mph 50% 0.00in 0.00 watts/m^2
18:19 50.4°F 32.5°F 30.13in 0.0mph 50% 0.00in 0.00 watts/m^2
18:24 50.4°F 32.5°F 30.14in 0.0mph 50% 0.00in 0.00 watts/m^2
18:29 50.4°F 32.5°F 30.13in 0.0mph 50% 0.00in 0.00 watts/m^2
18:34 50.4°F 32.5°F 30.13in 0.0mph 50% 0.00in 0.00 watts/m^2
18:44 50.4°F 32.5°F 30.12in 0.0mph 50% 0.00in 0.00 watts/m^2
18:50 50.4°F 32.5°F 30.13in 0.0mph 50% 0.00in 0.00 watts/m^2
18:55 50.4°F 32.5°F 30.14in 0.0mph 50% 0.00in 0.00 watts/m^2
19:00 50.4°F 32.5°F 30.14in 0.0mph 50% 0.00in 0.00 watts/m^2
19:05 50.2°F 32.7°F 30.14in 0.0mph 51% 0.00in 0.00 watts/m^2
19:10 50.0°F 32.5°F 30.14in 0.0mph 51% 0.00in 0.00 watts/m^2
19:15 49.8°F 32.9°F 30.15in 0.0mph 52% 0.00in 0.00 watts/m^2
19:20 49.6°F 32.7°F 30.14in 0.0mph 52% 0.00in 0.00 watts/m^2
19:25 49.3°F 32.4°F 30.14in 0.0mph 52% 0.00in 0.00 watts/m^2
19:30 49.3°F 32.4°F 30.15in 0.0mph 52% 0.00in 0.00 watts/m^2
19:35 49.3°F 32.9°F 30.14in 0.0mph 53% 0.00in 0.00 watts/m^2
19:40 49.5°F 32.5°F 30.16in 0.0mph 52% 0.00in 0.00 watts/m^2
19:45 49.6°F 32.7°F 30.15in 0.0mph 52% 0.00in 0.00 watts/m^2
19:50 49.8°F 32.9°F 30.15in 0.0mph 52% 0.00in 0.00 watts/m^2
19:55 49.8°F 33.4°F 30.15in 0.0mph 53% 0.00in 0.00 watts/m^2
20:00 49.8°F 33.8°F 30.16in 0.0mph 54% 0.00in 0.00 watts/m^2
20:06 49.8°F 33.8°F 30.16in 0.0mph 54% 0.00in 0.00 watts/m^2
20:11 49.8°F 33.8°F 30.15in 0.0mph 54% 0.00in 0.00 watts/m^2
20:16 49.6°F 33.6°F 30.15in 0.0mph 54% 0.00in 0.00 watts/m^2
20:21 49.6°F 33.6°F 30.15in 0.0mph 54% 0.00in 0.00 watts/m^2
20:26 49.6°F 33.6°F 30.16in 0.0mph 54% 0.00in 0.00 watts/m^2
20:31 49.6°F 33.6°F 30.16in 0.0mph 54% 0.00in 0.00 watts/m^2
20:36 49.6°F 33.6°F 30.15in 0.0mph 54% 0.00in 0.00 watts/m^2
20:41 49.6°F 33.3°F 30.15in 0.0mph 53% 0.00in 0.00 watts/m^2
20:46 49.6°F 33.6°F 30.15in 0.0mph 54% 0.00in 0.00 watts/m^2
20:51 49.6°F 33.3°F 30.16in 0.0mph 53% 0.00in 0.00 watts/m^2
20:56 49.8°F 33.4°F 30.16in 0.0mph 53% 0.00in 0.00 watts/m^2
21:01 49.8°F 33.8°F 30.15in 0.0mph 54% 0.00in 0.00 watts/m^2
21:06 49.8°F 33.4°F 30.16in 0.0mph 53% 0.00in 0.00 watts/m^2
21:11 49.8°F 33.8°F 30.15in 0.0mph 54% 0.00in 0.00 watts/m^2
21:16 49.6°F 33.6°F 30.15in 0.0mph 54% 0.00in 0.00 watts/m^2
21:21 49.6°F 33.3°F 30.16in 0.0mph 53% 0.00in 0.00 watts/m^2
21:27 49.6°F 33.3°F 30.16in 0.0mph 53% 0.00in 0.00 watts/m^2
21:32 49.6°F 33.3°F 30.14in 0.0mph 53% 0.00in 0.00 watts/m^2
21:37 49.8°F 33.8°F 30.15in 0.0mph 54% 0.00in 0.00 watts/m^2
21:42 50.0°F 34.0°F 30.15in 0.0mph 54% 0.00in 0.00 watts/m^2
21:57 50.2°F 34.2°F - 0.0mph 54% 0.00in 0.00 watts/m^2
22:02 50.4°F 34.3°F 30.15in 0.0mph 54% 0.00in 0.00 watts/m^2
22:12 50.4°F 34.3°F 30.14in 0.0mph 54% 0.00in 0.00 watts/m^2
22:17 50.5°F 35.1°F 30.14in 0.0mph 55% 0.00in 0.00 watts/m^2
22:22 50.5°F 35.1°F 30.13in 0.0mph 55% 0.00in 0.00 watts/m^2
22:27 50.5°F 35.1°F 30.14in 0.0mph 55% 0.00in 0.00 watts/m^2
22:38 50.7°F 35.2°F 30.13in 0.0mph 55% 0.00in 0.00 watts/m^2
22:43 50.7°F 35.2°F 30.14in 0.0mph 55% 0.00in 0.00 watts/m^2
22:48 50.7°F 35.2°F 30.14in 0.0mph 55% 0.00in 0.00 watts/m^2
22:53 50.7°F 35.2°F 30.14in 0.0mph 55% 0.00in 0.00 watts/m^2
22:58 50.7°F 35.2°F 30.13in 0.0mph 55% 0.00in 0.00 watts/m^2
23:03 50.5°F 35.1°F 30.14in 0.0mph 55% 0.00in 0.00 watts/m^2
Comma Delimited File
Powered by Weather Underground, Inc.